Change the Weather History Date:

Sunday, October 27, 2013

  Actual Average (KDRO) Record (KDRO)
Temperature  
Mean Temperature 42 °F 42 °F  
Max Temperature 55 °F 58 °F 73 °F (1988)
Min Temperature 30 °F 27 °F 13 °F (2012)
Degree Days  
Heating Degree Days 22 22  
Month to date heating degree days 469  
Since 1 July heating degree days 693  
Cooling Degree Days 0 0  
Month to date cooling degree days 0  
Year to date cooling degree days 243  
Moisture  
Dew Point 30 °F    
Average Humidity 69    
Maximum Humidity 99    
Minimum Humidity 30    
Precipitation  
Precipitation 0.00 in 0.04 in 1.20 in (1974)
Month to date precipitation 1.17  
Year to date precipitation 13.05  
Sea Level Pressure  
Sea Level Pressure 30.20 in    
Wind  
Wind Speed 1 mph (SSW)    
Max Wind Speed 9 mph    
Max Gust Speed 16 mph    
Visibility 10 miles    
Events Thunderstorm    
T = Trace of Precipitation, MM = Missing Value Source: NWS Daily Summary

Daily Weather History Graph

Daily Weather History Graph

Search for Another Location

Airport or City:

Trip Planner

Search our weather history database for the weather conditions in past years. The results will help you decide how hot, cold, wet, or windy it might be!

Date:

Astronomy

Oct. 27, 2013 Rise Set
Actual Time 7:28 AM MDT 6:15 PM MDT
Civil Twilight 7:01 AM MDT 6:42 PM MDT
Nautical Twilight 6:30 AM MDT 7:12 PM MDT
Astronomical Twilight 6:00 AM MDT 7:43 PM MDT
Moon 12:36 AM MDT (10/27) 2:18 PM MDT (10/27)
Length of Visible Light 11h 41m
Length of Day
10h 47m
Last Quarter, 43% of the Moon is Illuminated
Oct 27
Last Quarter
Nov 3
New
Nov 9
First Quarter
Nov 17
Full
Nov 25
Last Quarter

Hourly Weather History & Observations

Time (MDT) Temp. Windchill Dew Point Humidity Pressure Visibility Wind Dir Wind Speed Gust Speed Precip Events Conditions
12:15 AM 35.1 °F - 33.4 °F 94% 30.38 in 10.0 mi Calm Calm - N/A   Clear
12:35 AM 35.8 °F - 34.2 °F 94% 30.37 in 10.0 mi Calm Calm - N/A   Clear
12:55 AM 36.0 °F - 34.2 °F 93% 30.36 in 10.0 mi Calm Calm - N/A   Clear
1:15 AM 35.1 °F - 33.6 °F 94% 30.36 in 10.0 mi Calm Calm - N/A   Clear
1:35 AM 34.2 °F - 33.3 °F 97% 30.36 in 10.0 mi Calm Calm - N/A   Clear
1:55 AM 35.8 °F - 34.0 °F 93% 30.35 in 10.0 mi Calm Calm - N/A   Clear
2:15 AM 32.9 °F - 32.0 °F 96% 30.35 in 10.0 mi Calm Calm - N/A Thunderstorm Thunderstorm
2:35 AM 33.1 °F - 32.0 °F 96% 30.34 in 10.0 mi Calm Calm - N/A   Clear
2:55 AM 33.4 °F - 32.5 °F 96% 30.34 in 10.0 mi Calm Calm - N/A   Clear
3:15 AM 32.2 °F - 31.8 °F 99% 30.33 in 10.0 mi Calm Calm - N/A   Clear
3:35 AM 32.0 °F - 31.3 °F 97% 30.33 in 10.0 mi Calm Calm - N/A Thunderstorm Clear
3:55 AM 32.0 °F - 31.8 °F 99% 30.32 in 10.0 mi Calm Calm - N/A   Clear
4:15 AM 32.0 °F - 31.8 °F 99% 30.32 in 10.0 mi Calm Calm - N/A   Clear
4:35 AM 31.6 °F - 31.1 °F 98% 30.32 in 10.0 mi Calm Calm - N/A   Clear
4:55 AM 31.8 °F - 31.5 °F 99% 30.32 in 10.0 mi Calm Calm - N/A   Clear
5:15 AM 31.1 °F - 30.7 °F 99% 30.31 in 10.0 mi Calm Calm - N/A   Clear
5:35 AM 31.3 °F - 30.9 °F 99% 30.31 in 10.0 mi Calm Calm - N/A   Clear
5:55 AM 32.0 °F - 31.6 °F 99% 30.31 in 10.0 mi Calm Calm - N/A   Clear
6:15 AM 31.5 °F - 31.1 °F 99% 30.30 in 10.0 mi Calm Calm - N/A   Clear
6:35 AM 31.5 °F - 31.1 °F 99% 30.30 in 10.0 mi Calm Calm - N/A   Clear
6:55 AM 30.6 °F - 30.2 °F 99% 30.29 in 10.0 mi Calm Calm - N/A   Clear
7:15 AM 30.0 °F - 29.8 °F 99% 30.29 in 10.0 mi Calm Calm - N/A   Clear
7:35 AM 30.9 °F - 30.7 °F 99% 30.28 in 10.0 mi Calm Calm - N/A   Clear
7:55 AM 31.1 °F - 30.9 °F 99% 30.28 in 10.0 mi Calm Calm - N/A   Clear
8:15 AM 32.4 °F - 32.0 °F 99% 30.29 in 10.0 mi Calm Calm - N/A   Clear
8:35 AM 34.7 °F - 33.8 °F 97% 30.29 in 10.0 mi Calm Calm - N/A   Clear
8:55 AM 37.4 °F - 34.2 °F 88% 30.29 in 10.0 mi Calm Calm - N/A   Clear
9:15 AM 39.4 °F - 33.1 °F 78% 30.30 in 10.0 mi Calm Calm - N/A   Clear
9:35 AM 41.7 °F - 33.4 °F 72% 30.30 in 10.0 mi Calm Calm - N/A   Clear
9:55 AM 43.0 °F - 33.8 °F 70% 30.29 in 10.0 mi Calm Calm - N/A   Clear
10:15 AM 44.8 °F - 33.4 °F 64% 30.29 in 10.0 mi Calm Calm - N/A   Clear
10:35 AM 47.3 °F - 34.0 °F 60% 30.28 in 10.0 mi Calm Calm - N/A   Clear
10:55 AM 48.2 °F - 32.5 °F 55% 30.27 in 10.0 mi NE 3.5 mph - N/A   Clear
11:15 AM 49.3 °F - 32.5 °F 53% 30.26 in 10.0 mi Calm Calm - N/A   Clear
11:35 AM 49.8 °F - 32.9 °F 52% 30.26 in 10.0 mi SSW 3.5 mph - N/A   Clear
11:55 AM 50.7 °F - 32.0 °F 49% 30.25 in 10.0 mi Calm Calm - N/A   Clear
12:15 PM 51.4 °F - 32.4 °F 48% 30.23 in 10.0 mi South 5.8 mph - N/A   Clear
12:35 PM 52.0 °F - 32.2 °F 47% 30.22 in 10.0 mi SSW 6.9 mph 16.1 mph N/A   Clear
12:55 PM 51.6 °F - 32.0 °F 47% 30.20 in 10.0 mi SSW 3.5 mph - N/A   Clear
1:15 PM 52.5 °F - 32.0 °F 46% 30.19 in 10.0 mi SW 9.2 mph - N/A   Clear
1:35 PM 53.6 °F - 30.4 °F 41% 30.17 in 10.0 mi SSW 5.8 mph - N/A   Clear
1:55 PM 54.5 °F - 29.5 °F 38% 30.16 in 10.0 mi SSW 9.2 mph - N/A   Clear
2:15 PM 54.7 °F - 30.4 °F 40% 30.15 in 10.0 mi South 8.1 mph - N/A   Clear
2:35 PM 54.9 °F - 30.6 °F 40% 30.14 in 10.0 mi South 5.8 mph - N/A   Clear
2:55 PM 54.3 °F - 29.7 °F 39% 30.12 in 10.0 mi SW 4.6 mph - N/A   Clear
3:15 PM 55.2 °F - 28.4 °F 36% 30.12 in 10.0 mi SW 8.1 mph - N/A   Clear
3:35 PM 55.0 °F - 27.7 °F 35% 30.11 in 10.0 mi SSW 6.9 mph - N/A   Clear
3:55 PM 54.7 °F - 27.0 °F 34% 30.10 in 10.0 mi West 3.5 mph - N/A   Clear
4:15 PM 55.8 °F - 25.5 °F 31% 30.10 in 10.0 mi South 9.2 mph - N/A   Clear
4:35 PM 55.6 °F - 25.7 °F 32% 30.09 in 10.0 mi South 4.6 mph - N/A   Clear
4:55 PM 55.4 °F - 25.3 °F 31% 30.08 in 10.0 mi Calm Calm - N/A   Clear
5:15 PM 55.4 °F - 24.8 °F 31% 30.07 in 10.0 mi WSW 5.8 mph - N/A   Clear
5:35 PM 55.4 °F - 24.6 °F 30% 30.07 in 10.0 mi SSW 3.5 mph - N/A   Clear
5:55 PM 54.7 °F - 25.9 °F 33% 30.07 in 10.0 mi WSW 5.8 mph - N/A   Clear
6:15 PM 51.8 °F - 27.3 °F 39% 30.07 in 10.0 mi West 3.5 mph - N/A   Clear
6:35 PM 48.6 °F - 27.9 °F 45% 30.08 in 10.0 mi Calm Calm - N/A   Clear
6:55 PM 44.6 °F - 28.6 °F 53% 30.07 in 10.0 mi Calm Calm - N/A   Clear
7:15 PM 41.9 °F - 28.8 °F 60% 30.07 in 10.0 mi Calm Calm - N/A   Clear
7:35 PM 41.9 °F - 28.9 °F 60% 30.07 in 10.0 mi Calm Calm - N/A   Clear
7:55 PM 41.0 °F - 27.0 °F 57% 30.07 in 10.0 mi Calm Calm - N/A   Clear
8:15 PM 42.3 °F 40.5 °F 27.3 °F 56% 30.07 in 10.0 mi ENE 3.5 mph - N/A   Clear
8:35 PM 39.4 °F - 28.0 °F 64% 30.06 in 10.0 mi Calm Calm - N/A   Clear
8:55 PM 39.6 °F 37.4 °F 28.0 °F 63% 30.06 in 10.0 mi NE 3.5 mph - N/A   Clear
9:15 PM 40.8 °F - 28.0 °F 60% 30.05 in 10.0 mi Calm Calm - N/A   Clear
9:35 PM 39.6 °F - 27.5 °F 62% 30.05 in 10.0 mi Calm Calm - N/A   Clear
9:55 PM 41.2 °F - 28.2 °F 60% 30.05 in 10.0 mi Calm Calm - N/A   Clear
10:15 PM 38.1 °F - 29.3 °F 71% 30.06 in 10.0 mi Calm Calm - N/A   Clear
10:35 PM 37.4 °F - 29.3 °F 73% 30.05 in 10.0 mi Calm Calm - N/A   Clear
10:55 PM 40.1 °F - 28.6 °F 63% 30.05 in 10.0 mi Calm Calm - N/A   Clear
11:15 PM 37.9 °F - 29.1 °F 71% 30.05 in 10.0 mi Calm Calm - N/A   Scattered Clouds
11:35 PM 37.4 °F - 28.6 °F 70% 30.05 in 10.0 mi Calm Calm - N/A   Scattered Clouds
11:55 PM 36.5 °F - 28.9 °F 74% 30.05 in 10.0 mi Calm Calm - N/A   Clear